Naples, FL

11:21 AM EST on January 16, 2018 (GMT -0500)
Naples Municipal

Weather History for KAPF - May, 2012

Change the Weather History Date:

Thursday, May 3, 2012

  Actual Average Record
Temperature  
Mean Temperature 79 °F 76 °F  
Max Temperature 88 °F 86 °F 91 °F (1990)
Min Temperature 70 °F 66 °F 56 °F (1955)
Degree Days  
Heating Degree Days 0 0  
Month to date heating degree days 0 0  
Since 1 July heating degree days 121 260  
Cooling Degree Days 14 11  
Month to date cooling degree days 43 33  
Year to date cooling degree days 857 653  
Growing Degree Days 28 (Base 50)    
Moisture  
Dew Point 69 °F    
Average Humidity 74    
Maximum Humidity 97    
Minimum Humidity 50    
Precipitation  
Precipitation 0.00 in 0.07 in 1.16 in (1963)
Month to date precipitation 0.79 0.20  
Year to date precipitation 7.64 8.89  
Snow  
Snow 0.00 in - - ()
Month to date snowfall 0.0  
Since 1 July snowfall 0.0  
Snow Depth 0.00 in    
Sea Level Pressure  
Sea Level Pressure 30.05 in    
Wind  
Wind Speed 9 mph (SE)    
Max Wind Speed 13 mph    
Max Gust Speed 20 mph    
Visibility 10 miles    
Events      
T = Trace of Precipitation, MM = Missing Value Source: NWS Daily Summary

Daily Weather History Graph

Daily Weather History Graph

Search for Another Location

Airport or City:

Trip Planner

Search our weather history database for the weather conditions in past years. The results will help you decide how hot, cold, wet, or windy it might be!

Date:

Astronomy

May. 03, 2012 Rise Set
Actual Time 6:47 AM EDT 8:00 PM EDT
Civil Twilight 6:23 AM EDT 8:24 PM EDT
Nautical Twilight 5:54 AM EDT 8:53 PM EDT
Astronomical Twilight 5:24 AM EDT 9:23 PM EDT
Moon 5:34 PM EDT (5/3) 4:35 AM EDT (5/3)
Length of Visible Light 14h 01m
Length of Day
13h 12m
Waxing Gibbous, 91% of the Moon is Illuminated
May 3
Waxing Gibbous
May 5
Full
May 12
Last Quarter
May 20
New
May 28
First Quarter

Hourly Weather History & Observations

Time (EDT) Temp. Heat Index Dew Point Humidity Pressure Visibility Wind Dir Wind Speed Gust Speed Precip Events Conditions
12:53 AM 73.0 °F - 68.0 °F 84% 30.07 in 10.0 mi East 6.9 mph - N/A   Clear
1:53 AM 72.0 °F - 68.0 °F 87% 30.05 in 10.0 mi East 5.8 mph - N/A   Clear
2:53 AM 71.1 °F - 69.1 °F 93% 30.03 in 10.0 mi East 8.1 mph - N/A   Clear
3:53 AM 71.1 °F - 69.1 °F 93% 30.03 in 9.0 mi East 5.8 mph - N/A   Clear
4:53 AM 70.0 °F - 68.0 °F 93% 30.01 in 9.0 mi East 9.2 mph - N/A   Clear
5:53 AM 70.0 °F - 68.0 °F 93% 30.01 in 9.0 mi East 6.9 mph - N/A   Clear
6:53 AM 70.0 °F - 68.0 °F 93% 30.04 in 7.0 mi East 8.1 mph - N/A   Clear
7:53 AM 72.0 °F - 69.1 °F 91% 30.06 in 9.0 mi East 9.2 mph - N/A   Clear
8:53 AM 75.9 °F - 70.0 °F 82% 30.05 in 10.0 mi ESE 11.5 mph 19.6 mph N/A   Clear
9:53 AM 79.0 °F - 70.0 °F 74% 30.07 in 10.0 mi ESE 11.5 mph - N/A   Scattered Clouds
10:53 AM 82.0 °F 85.9 °F 70.0 °F 67% 30.09 in 10.0 mi SSE 11.5 mph 18.4 mph N/A   Mostly Cloudy
11:53 AM 82.9 °F 85.8 °F 68.0 °F 60% 30.08 in 10.0 mi SSE 11.5 mph - N/A   Scattered Clouds
12:53 PM 84.9 °F 87.6 °F 66.9 °F 55% 30.07 in 10.0 mi ESE 8.1 mph - N/A   Partly Cloudy
1:53 PM 87.1 °F 89.2 °F 66.0 °F 49% 30.05 in 10.0 mi ESE 8.1 mph - N/A   Scattered Clouds
2:53 PM 84.9 °F 89.4 °F 70.0 °F 61% 30.04 in 10.0 mi SSW 12.7 mph - N/A   Mostly Cloudy
3:53 PM 86.0 °F 90.7 °F 70.0 °F 59% 30.02 in 10.0 mi SSW 12.7 mph - N/A   Mostly Cloudy
4:53 PM 84.0 °F 89.6 °F 72.0 °F 67% 30.01 in 10.0 mi SW 13.8 mph - N/A   Partly Cloudy
5:53 PM 81.0 °F 85.2 °F 72.0 °F 74% 30.01 in 10.0 mi SW 11.5 mph - 0.00 in   Scattered Clouds
6:53 PM 81.0 °F 84.9 °F 71.1 °F 72% 30.01 in 10.0 mi South 8.1 mph - N/A   Clear
7:53 PM 79.0 °F - 72.0 °F 79% 30.02 in 10.0 mi South 4.6 mph - N/A   Clear
8:53 PM 79.0 °F - 71.1 °F 77% 30.04 in 10.0 mi SE 5.8 mph - N/A   Mostly Cloudy
9:53 PM 79.0 °F - 69.1 °F 72% 30.07 in 10.0 mi ESE 11.5 mph 20.7 mph N/A   Overcast
10:53 PM 75.9 °F - 68.0 °F 76% 30.08 in 10.0 mi East 8.1 mph - N/A   Partly Cloudy
11:53 PM 75.0 °F - 68.0 °F 79% 30.08 in 10.0 mi East 4.6 mph - N/A   Clear